{"data":{"norad_id":36582,"intl_designator":"2010-021B","name":"COMSATBW-2","alt_names":[],"object_type":"PAYLOAD","status":"ACTIVE","operator":null,"country":"GER","launch_date":"2010-05-21","launch_site_code":"FRGUI","launch_vehicle":null,"mission":null,"orbit_class":"UNKNOWN","rcs_meters":6.3096,"size_class":null,"mass_kg":null,"dimensions":null,"purposes":["comms"],"wikipedia_slug":null,"has_3d_model":false,"image_url":null,"decayed_at":null,"tle_current":{"epoch":"2026-09-20T03:17:57.739776Z","epoch_age_seconds":53338,"freshness":"FRESH","line1":"1 36582U 10021B   26263.13747384  .00000084  00000+0  00000+0 0  9994","line2":"2 36582   0.0093 162.6530 0002600  26.6645 232.4791  1.00268969 59900","mean_motion":1.00268969,"eccentricity":0.00026,"inclination_deg":0.0093,"raan_deg":162.653,"arg_perigee_deg":26.6645,"mean_anomaly_deg":232.4791,"bstar":0,"rev_number":5990,"period_min":1436.1372360376,"perigee_km":35776.421371124,"apogee_km":35798.347442256,"semimajor_km":42165.52140669,"source":"CELESTRAK","updated_at":"2026-09-20T09:00:35.163184Z"}}}